******************************************************************************* JPL/HORIZONS 17P/Holmes 2025-Dec-12 17:55:15 Rec #:90000285 (+COV) Soln.date: 2017-Feb-09_10:05:30 # obs: 5036 (2007-2016) IAU76/J2000 helio. ecliptic osc. elements (au, days, deg., period=Julian yrs): EPOCH= 2455213.5 ! 2010-Jan-17.0000000 (TDB) RMSW= n.a. EC= .4328758383063912 QR= 2.05337898782295 TP= 2454225.52842644 OM= 326.8532150891524 W= 24.35185259322855 IN= 19.11426464401879 A= 3.620686838118346 MA= 141.3390207418579 ADIST= 5.187994688413742 PER= 6.88961013747 N= .143059805 ANGMOM= .029506675 DAN= 2.11009 DDN= 4.85809 L= 350.0073754 B= 7.7598751 MOID= 1.05788004 TP= 2007-May-05.0284264400 Comet physical (GM= km^3/s^2; RAD= km): GM= n.a. RAD= 1.71 M1= 9.4 M2= 13.8 k1= 14.75 k2= 5. PHCOF= .030 Comet non-gravitational force model (AMRAT=m^2/kg;A1-A3=au/d^2;DT=days;R0=au): AMRAT= 0. DT= 0. A1= 2.485104948282E-9 A2= 2.671949863434E-9 A3= 8.08160379529E-10 Standard model: ALN= .1112620426 NK= 4.6142 NM= 2.15 NN= 5.093 R0= 2.808 COMET comments 1: soln ref.= JPL#K142/1, data arc: 2007-05-13 to 2016-02-11 2: k1=14.75, k2=5., phase coef.=0.03; ******************************************************************************* ******************************************************************************* Ephemeris / WWW_USER Fri Dec 12 17:55:15 2025 Pasadena, USA / Horizons ******************************************************************************* Target body name: 17P/Holmes {source: JPL#K142/1} Center body name: Earth (399) {source: DE441} Center-site name: GEOCENTRIC ******************************************************************************* Start time : A.D. 2028-Jan-30 00:00:00.0000 UT Stop time : A.D. 2028-Feb-02 00:00:00.0000 UT Step-size : 180 minutes ******************************************************************************* Target pole/equ : undefined Target radii : 1.71 km Center geodetic : 0.0, 0.0, -6378.137 {E-lon(deg),Lat(deg),Alt(km)} Center cylindric: 0.0, 0.0, 0.0 {E-lon(deg),Dxy(km),Dz(km)} Center pole/equ : ITRF93 {East-longitude positive} Center radii : 6378.137, 6378.137, 6356.752 km {Equator_a, b, pole_c} Target primary : Sun Vis. interferer : MOON (R_eq= 1737.400) km {source: DE441} Rel. light bend : Sun {source: DE441} Rel. lght bnd GM: 1.3271E+11 km^3/s^2 Small-body perts: Yes {source: SB441-N16} Atmos refraction: NO (AIRLESS) RA format : HMS Time format : CAL Calendar mode : Mixed Julian/Gregorian EOP file : eop.251212.p260310 EOP coverage : DATA-BASED 1962-JAN-20 TO 2025-DEC-12. PREDICTS-> 2026-MAR-09 Units conversion: 1 au= 149597870.700 km, c= 299792.458 km/s, 1 day= 86400.0 s Table cut-offs 1: Elevation (-90.0deg=NO ),Airmass (>38.000=NO), Daylight (NO ) Table cut-offs 2: Solar elongation ( 0.0,180.0=NO ),Local Hour Angle( 0.0=NO ) Table cut-offs 3: RA/DEC angular rate ( 0.0=NO ) ******************************************************************************* Initial IAU76/J2000 heliocentric ecliptic osculating elements (au, days, deg.): EPOCH= 2455213.5 ! 2010-Jan-17.0000000 (TDB) RMSW= n.a. EC= .4328758383063912 QR= 2.05337898782295 TP= 2454225.52842644 OM= 326.8532150891524 W= 24.35185259322855 IN= 19.11426464401879 Equivalent ICRF heliocentric cartesian coordinates (au, au/d): X=-4.481566067132595E+00 Y= 2.133315718666939E+00 Z= 7.072880814017970E-01 VX=-3.577023356760114E-03 VY=-3.286899641276595E-03 VZ=-3.566213303935671E-03 Comet physical (GM= km^3/s^2; RAD= km): GM= n.a. RAD= 1.71 M1= 9.4 M2= 13.8 k1= 14.75 k2= 5. PHCOF= .030 Comet non-gravitational force model (AMRAT=m^2/kg;A1-A3=au/d^2;DT=days;R0=au): AMRAT= 0. DT= 0. A1= 2.485104948282E-9 A2= 2.671949863434E-9 A3= 8.08160379529E-10 Standard model: ALN= .1112620426 NK= 4.6142 NM= 2.15 NN= 5.093 R0= 2.808 ******************************************************************************* Date__(UT)__HR:MN r rdot ************************************************** $$SOE 2028-Jan-30 00:00 2.092023636002 -0.0899457 2028-Jan-30 03:00 2.092017367784 -0.0837096 2028-Jan-30 06:00 2.092011549763 -0.0774734 2028-Jan-30 09:00 2.092006181945 -0.0712371 2028-Jan-30 12:00 2.092001264336 -0.0650008 2028-Jan-30 15:00 2.091996796943 -0.0587643 2028-Jan-30 18:00 2.091992779770 -0.0525278 2028-Jan-30 21:00 2.091989212822 -0.0462912 2028-Jan-31 00:00 2.091986096104 -0.0400546 2028-Jan-31 03:00 2.091983429620 -0.0338179 2028-Jan-31 06:00 2.091981213371 -0.0275812 2028-Jan-31 09:00 2.091979447362 -0.0213445 2028-Jan-31 12:00 2.091978131594 -0.0151077 2028-Jan-31 15:00 2.091977266069 -0.0088709 2028-Jan-31 18:00 2.091976850788 -0.0026341 2028-Jan-31 21:00 2.091976885751 0.0036027 2028-Feb-01 00:00 2.091977370960 0.0098395 2028-Feb-01 03:00 2.091978306412 0.0160763 2028-Feb-01 06:00 2.091979692108 0.0223131 2028-Feb-01 09:00 2.091981528045 0.0285499 2028-Feb-01 12:00 2.091983814223 0.0347866 2028-Feb-01 15:00 2.091986550637 0.0410233 2028-Feb-01 18:00 2.091989737286 0.0472599 2028-Feb-01 21:00 2.091993374165 0.0534965 2028-Feb-02 00:00 2.091997461272 0.0597330 $$EOE ******************************************************************************* Column meaning: TIME Times PRIOR to 1962 are UT1, a mean-solar time closely related to the prior but now-deprecated GMT. Times AFTER 1962 are in UTC, the current civil or "wall-clock" time-scale. UTC is kept within 0.9 seconds of UT1 using integer leap-seconds for 1972 and later years. Conversion from the internal Barycentric Dynamical Time (TDB) of solar system dynamics to the non-uniform civil UT time-scale requested for output has not been determined for UTC times after the next July or January 1st. Therefore, the last known leap-second is used as a constant over future intervals. Time tags refer to the UT time-scale conversion from TDB on Earth regardless of observer location within the solar system, although clock rates may differ due to the local gravity field and no analog to "UT" may be defined for that location. Any 'b' symbol in the 1st-column denotes a B.C. date. First-column blank (" ") denotes an A.D. date. CALENDAR SYSTEM Mixed calendar mode was active such that calendar dates after AD 1582-Oct-15 (if any) are in the modern Gregorian system. Dates prior to 1582-Oct-5 (if any) are in the Julian calendar system, which is automatically extended for dates prior to its adoption on 45-Jan-1 BC. The Julian calendar is useful for matching historical dates. The Gregorian calendar more accurately corresponds to the Earth's orbital motion and seasons. A "Gregorian-only" calendar mode is available if such physical events are the primary interest. NOTE: "n.a." in output means quantity "not available" at the print-time. 'r rdot' = The Sun's apparent range ("r", light-time aberrated) and range-rate ("rdot") relative to the target center, as seen by the observer. A positive "rdot" means the target center was moving away from the Sun, negative means moving toward the Sun. Units: AU and KM/S Computations by ... Solar System Dynamics Group, Horizons On-Line Ephemeris System 4800 Oak Grove Drive, Jet Propulsion Laboratory Pasadena, CA 91109 USA General site: https://ssd.jpl.nasa.gov/ Mailing list: https://ssd.jpl.nasa.gov/email_list.html System news : https://ssd.jpl.nasa.gov/horizons/news.html User Guide : https://ssd.jpl.nasa.gov/horizons/manual.html Connect : browser https://ssd.jpl.nasa.gov/horizons/app.html#/x API https://ssd-api.jpl.nasa.gov/doc/horizons.html command-line telnet ssd.jpl.nasa.gov 6775 e-mail/batch https://ssd.jpl.nasa.gov/ftp/ssd/horizons_batch.txt scripts https://ssd.jpl.nasa.gov/ftp/ssd/SCRIPTS Author : Jon.D.Giorgini@jpl.nasa.gov ******************************************************************************* !$$SOF COMMAND = '90000285' QUANTITIES = '19' START_TIME = '2028-Jan-30' STEP_SIZE = '3 hours' STOP_TIME = '2028-Feb-02'